Location: Bremen
(53.0793°N, 8.8017°E)
Time: 14:46:50
(UTC+01:00)

S-56A Canister/Altair - Pass Details

Date: 02 December 2021
Orbit: 634 x 2499 km, 38.9° (Epoch: 28 January)

Event Time Altitude Azimuth Distance (km) Brightness Sun altitude
Rises 01:16:22 0° 224° (SW) 4,708 - -56.7°
Reaches altitude 10° 01:20:57 10° 209° (SSW) 3,341 - -56.4°
Maximum altitude 01:26:04 19° 169° (SSE) 2,330 - -56.0°
Drops below altitude 10° 01:30:10 10° 126° (SE) 2,577 - -55.7°
Sets 01:33:06 0° 107° (ESE) 3,302 - -55.4°
